Location: Embarras
(53.3000°N, 116.9000°W)
Time: 10:04:56
(UTC+00:00)

SPROUT - Visible Passes

Search period start: 01 December 2023 00:00
Search period end: 11 December 2023 00:00
Orbit: 524 x 530 km, 98.0° (Epoch: 30 November)

Date Brightness Start Highest point End Pass type
(mag) Time Alt. Az. Time Alt. Az. Time Alt. Az.
06 Dec ? 00:48:01 10° NNW 00:49:18 11° NW 00:50:36 10° WNW visible
07 Dec ? 00:35:20 10° NNW 00:37:25 14° NW 00:39:30 10° W visible
08 Dec ? 00:22:48 10° NNW 00:25:25 18° WNW 00:28:02 10° WSW visible
09 Dec ? 00:10:17 10° N 00:13:18 22° WNW 00:16:18 10° WSW visible
